Change the Weather History Date:

Friday, October 26, 2012

  Actual Average Record
Temperature  
Mean Temperature 58 °F -  
Max Temperature 70 °F 60 °F 75 °F (2004)
Min Temperature 45 °F 45 °F 37 °F (2000)
Degree Days  
Heating Degree Days 8    
Growing Degree Days 8 (Base 50)    
Moisture  
Dew Point 52 °F    
Average Humidity 81    
Maximum Humidity 94    
Minimum Humidity 57    
Precipitation  
Precipitation 0.00 in 0.09 in - ()
Sea Level Pressure  
Sea Level Pressure 29.89 in    
Wind  
Wind Speed 2 mph ()    
Max Wind Speed 14 mph    
Max Gust Speed -    
Visibility 6.2 miles    
Events      
Averages and records for this station are not official NWS values.
T = Trace of Precipitation, MM = Missing Value Source: Averaged Metar Reports

Daily Weather History Graph

Daily Weather History Graph

Search for Another Location

Airport or City:

Trip Planner

Search our weather history database for the weather conditions in past years. The results will help you decide how hot, cold, wet, or windy it might be!

Date:

Astronomy

Oct. 26, 2012 Rise Set
Actual Time 7:40 AM EEST 6:19 PM EEST
Civil Twilight 7:11 AM EEST 6:47 PM EEST
Nautical Twilight 6:39 AM EEST 7:19 PM EEST
Astronomical Twilight 6:07 AM EEST 7:51 PM EEST
Moon 4:26 PM EEST (10/26) 4:16 AM EEST (10/26)
Length of Visible Light 11h 35m
Length of Day
10h 39m
Waxing Gibbous, 89% of the Moon is Illuminated
Oct 26
Waxing Gibbous
Oct 29
Full
Nov 7
Last Quarter
Nov 14
New
Nov 20
First Quarter

Hourly Weather History & Observations

Time (EEST) Temp. Dew Point Humidity Pressure Visibility Wind Dir Wind Speed Gust Speed Precip Events Conditions
12:20 AM 51.8 °F 44.6 °F 76% 29.92 in - Calm Calm - N/A   Clear
12:50 AM 50.0 °F 44.6 °F 82% 29.92 in - Calm Calm - N/A   Clear
1:20 AM 50.0 °F 44.6 °F 82% 29.92 in - Calm Calm - N/A   Clear
1:50 AM 50.0 °F 44.6 °F 82% 29.89 in - Calm Calm - N/A   Clear
2:50 AM 48.2 °F 44.6 °F 87% 29.92 in - Calm Calm - N/A   Clear
3:00 AM 49 °F 44 °F 79% 29.92 in 6 mi Calm Calm - -  
3:20 AM 48.2 °F 44.6 °F 87% 29.92 in - Calm Calm - N/A   Clear
3:50 AM 48.2 °F 42.8 °F 82% 29.89 in - Calm Calm - N/A   Clear
4:20 AM 48.2 °F 42.8 °F 82% 29.89 in - Calm Calm - N/A   Clear
4:50 AM 46.4 °F 42.8 °F 87% 29.89 in - Calm Calm - N/A   Clear
5:20 AM 46.4 °F 42.8 °F 87% 29.89 in - Calm Calm - N/A   Clear
5:50 AM 46.4 °F 42.8 °F 87% 29.89 in - Calm Calm - N/A   Clear
6:20 AM 46.4 °F 42.8 °F 87% 29.89 in - Calm Calm - N/A   Clear
6:50 AM 44.6 °F 41.0 °F 87% 29.89 in - Calm Calm - N/A   Clear
7:20 AM 44.6 °F 41.0 °F 87% 29.89 in - Calm Calm - N/A   Clear
7:50 AM 46.4 °F 42.8 °F 87% 29.89 in - Calm Calm - N/A   Clear
8:20 AM 48.2 °F 44.6 °F 87% 29.89 in - Calm Calm - N/A   Clear
8:50 AM 51.8 °F 46.4 °F 82% 29.89 in - Calm Calm - N/A   Clear
9:00 AM 49 °F 47 °F 91% 29.91 in 6 mi Calm Calm - -  
9:20 AM 51.8 °F 46.4 °F 82% 29.89 in - Calm Calm - N/A   Clear
9:50 AM 53.6 °F 50.0 °F 88% 29.89 in - Calm Calm - N/A   Clear
10:20 AM 53.6 °F 50.0 °F 88% 29.89 in - Calm Calm - N/A   Clear
10:50 AM 55.4 °F 51.8 °F 88% 29.89 in 6.2 mi Variable 2.3 mph - N/A   Partly Cloudy
11:20 AM 55.4 °F 51.8 °F 88% 29.89 in 6.2 mi Variable 2.3 mph - N/A   Partly Cloudy
11:50 AM 60.8 °F 53.6 °F 77% 29.89 in 6.2 mi South 6.9 mph - N/A   Partly Cloudy
12:20 PM 64.4 °F 59.0 °F 83% 29.89 in 6.2 mi South 6.9 mph - N/A   Partly Cloudy
12:50 PM 68.0 °F 60.8 °F 78% 29.89 in 6.2 mi SSW 6.9 mph - N/A   Partly Cloudy
1:20 PM 69.8 °F 60.8 °F 73% 29.89 in 6.2 mi SSW 6.9 mph - N/A   Partly Cloudy
1:50 PM 69.8 °F 62.6 °F 78% 29.89 in 6.2 mi SSW 11.5 mph - N/A   Partly Cloudy
2:20 PM 69.8 °F 62.6 °F 78% 29.89 in 6.2 mi SSW 11.5 mph - N/A   Partly Cloudy
2:50 PM 69.8 °F 59.0 °F 68% 29.86 in 6.2 mi SW 12.7 mph - N/A   Partly Cloudy
3:00 PM 71 °F 59 °F 57% 29.88 in 6 mi SW 12.7 mph - -   Scattered Clouds
3:20 PM 71.6 °F 59.0 °F 64% 29.86 in 6.2 mi SW 12.7 mph - N/A   Partly Cloudy
3:50 PM 69.8 °F 59.0 °F 68% 29.86 in 6.2 mi SW 13.8 mph - N/A   Partly Cloudy
4:20 PM 69.8 °F 59.0 °F 68% 29.86 in 6.2 mi SW 12.7 mph - N/A   Partly Cloudy
4:50 PM 69.8 °F 59.0 °F 68% 29.86 in 6.2 mi WSW 12.7 mph - N/A   Partly Cloudy
5:20 PM 68.0 °F 59.0 °F 73% 29.86 in 6.2 mi WSW 10.4 mph - N/A   Partly Cloudy
5:50 PM 66.2 °F 59.0 °F 78% 29.86 in 6.2 mi WSW 9.2 mph - N/A   Scattered Clouds
6:20 PM 66.2 °F 59.0 °F 78% 29.86 in 6.2 mi WSW 8.1 mph - N/A   Scattered Clouds
6:50 PM 64.4 °F 57.2 °F 77% 29.86 in 6.2 mi WSW 4.6 mph - N/A   Scattered Clouds
7:20 PM 64.4 °F 57.2 °F 77% 29.86 in 6.2 mi West 4.6 mph - N/A   Scattered Clouds
7:50 PM 62.6 °F 55.4 °F 77% 29.89 in 6.2 mi NW 4.6 mph - N/A   Scattered Clouds
8:20 PM 60.8 °F 55.4 °F 82% 29.89 in 6.2 mi Variable 3.5 mph - N/A   Partly Cloudy
8:50 PM 60.8 °F 55.4 °F 82% 29.89 in 6.2 mi Calm Calm - N/A   Partly Cloudy
9:00 PM 60 °F 56 °F 81% 29.89 in 6 mi Calm Calm - -   Scattered Clouds
9:20 PM 59.0 °F 55.4 °F 88% 29.89 in 6.2 mi Variable 3.5 mph - N/A   Partly Cloudy
9:50 PM 59.0 °F 55.4 °F 88% 29.89 in 6.2 mi Calm Calm - N/A   Partly Cloudy
10:20 PM 59.0 °F 55.4 °F 88% 29.89 in 6.2 mi Calm Calm - N/A   Partly Cloudy
10:50 PM 55.4 °F 53.6 °F 94% 29.89 in 6.2 mi Calm Calm - N/A   Partly Cloudy
11:20 PM 55.4 °F 53.6 °F 94% 29.89 in 6.2 mi Calm Calm - N/A   Partly Cloudy
11:50 PM 55.4 °F 53.6 °F 94% 29.89 in 6.2 mi Calm Calm - N/A   Partly Cloudy